• In Netherlands
  • List of Countries
  • For 7 days
  • Water Temperature
  • Satellite Maps
  • Weather Map
  • Weather Widgets
  • user-avatar
    Login

    Hourly Weather Jewłach

    Today, 28 July, Friday

    Time Temperature Precipitation Wind Pressure Humidity
    00:00 +30°C° 0 mm 3 mps 757 mmHg 39%
    01:00 +30°C° 0 mm 3 mps 757 mmHg 40%
    02:00 +30°C° 0 mm 2 mps 757 mmHg 41%
    03:00 +29°C° 0 mm 2 mps 756 mmHg 42%
    04:00 +30°C° 0 mm 1 mps 757 mmHg 41%
    05:00 +30°C° 0 mm 1 mps 757 mmHg 41%
    06:00 +31°C° 0 mm 1 mps 757 mmHg 40%
    07:00 +32°C° 0 mm 1 mps 756 mmHg 36%
    08:00 +34°C° 0 mm 1 mps 756 mmHg 32%
    09:00 +36°C° 0 mm 1 mps 756 mmHg 28%
    10:00 +37°C° 0 mm 1 mps 756 mmHg 26%
    11:00 +40°C° 0 mm 2 mps 755 mmHg 24%
    12:00 +41°C° 0 mm 2 mps 755 mmHg 22%
    13:00 +41°C° 0 mm 2 mps 755 mmHg 21%
    14:00 +42°C° 0 mm 2 mps 754 mmHg 20%
    15:00 +44°C° 0 mm 3 mps 754 mmHg 19%
    16:00 +43°C° 0 mm 3 mps 754 mmHg 20%
    17:00 +43°C° 0 mm 3 mps 754 mmHg 20%
    18:00 +43°C° 0 mm 3 mps 754 mmHg 21%
    19:00 +39°C° 0 mm 3 mps 754 mmHg 24%
    20:00 +37°C° 0 mm 3 mps 755 mmHg 27%
    21:00 +35°C° 0 mm 3 mps 755 mmHg 31%
    22:00 +34°C° 0 mm 3 mps 755 mmHg 34%
    23:00 +32°C° 0 mm 2 mps 755 mmHg 36%

    Tomorrow, 29 July, Saturday

    Time Temperature Precipitation Wind Pressure Humidity
    00:00 +31°C° 0 mm 2 mps 755 mmHg 39%
    01:00 +30°C° 0 mm 2 mps 755 mmHg 41%
    02:00 +30°C° 0 mm 1 mps 755 mmHg 43%
    03:00 +29°C° 0 mm 1 mps 755 mmHg 44%
    04:00 +30°C° 0 mm 1 mps 755 mmHg 43%
    05:00 +30°C° 0 mm 1 mps 755 mmHg 42%
    06:00 +31°C° 0 mm 2 mps 755 mmHg 40%
    07:00 +34°C° 0 mm 2 mps 755 mmHg 35%
    08:00 +36°C° 0 mm 3 mps 755 mmHg 29%
    09:00 +38°C° 0 mm 3 mps 754 mmHg 24%
    10:00 +40°C° 0 mm 3 mps 754 mmHg 22%
    11:00 +42°C° 0 mm 3 mps 754 mmHg 20%
    12:00 +44°C° 0 mm 3 mps 753 mmHg 18%
    13:00 +43°C° 0 mm 2 mps 753 mmHg 17%
    14:00 +45°C° 0 mm 2 mps 753 mmHg 16%
    15:00 +45°C° 0 mm 1 mps 753 mmHg 16%
    16:00 +44°C° 0 mm 1 mps 753 mmHg 16%
    17:00 +44°C° 0 mm 1 mps 753 mmHg 17%
    18:00 +43°C° 0 mm 1 mps 753 mmHg 18%
    19:00 +41°C° 0 mm 2 mps 754 mmHg 21%
    20:00 +39°C° 0 mm 2 mps 755 mmHg 24%
    21:00 +36°C° 0 mm 3 mps 755 mmHg 27%
    22:00 +35°C° 0 mm 3 mps 756 mmHg 31%
    23:00 +34°C° 0 mm 2 mps 756 mmHg 35%

    Day after tomorrow, 30 July, Sunday

    Time Temperature Precipitation Wind Pressure Humidity
    00:00 +32°C° 0 mm 2 mps 757 mmHg 38%
    01:00 +33°C° 0 mm 3 mps 757 mmHg 40%
    02:00 +33°C° 0 mm 3 mps 757 mmHg 42%
    03:00 +32°C° 0 mm 4 mps 757 mmHg 44%
    04:00 +32°C° 0 mm 4 mps 758 mmHg 44%
    05:00 +32°C° 0 mm 4 mps 758 mmHg 44%
    06:00 +32°C° 0 mm 4 mps 758 mmHg 44%
    07:00 +34°C° 0 mm 3 mps 758 mmHg 39%
    08:00 +36°C° 0 mm 3 mps 758 mmHg 33%
    09:00 +38°C° 0 mm 3 mps 758 mmHg 28%
    10:00 +39°C° 0 mm 3 mps 758 mmHg 26%
    11:00 +40°C° 0 mm 2 mps 758 mmHg 24%
    12:00 +41°C° 0 mm 2 mps 757 mmHg 22%
    13:00 +42°C° 0 mm 2 mps 757 mmHg 21%
    14:00 +43°C° 0 mm 3 mps 757 mmHg 20%
    15:00 +44°C° 0 mm 4 mps 756 mmHg 19%
    16:00 +44°C° 0 mm 4 mps 756 mmHg 21%
    17:00 +43°C° 0 mm 5 mps 756 mmHg 22%
    18:00 +42°C° 0 mm 5 mps 756 mmHg 23%
    19:00 +40°C° 0 mm 5 mps 757 mmHg 27%
    20:00 +37°C° 0 mm 5 mps 758 mmHg 32%
    21:00 +35°C° 0 mm 5 mps 758 mmHg 37%
    22:00 +34°C° 0 mm 4 mps 759 mmHg 41%
    23:00 +33°C° 0 mm 3 mps 759 mmHg 45%

    31 July, Monday

    Time Temperature Precipitation Wind Pressure Humidity
    00:00 +31°C° 0 mm 3 mps 759 mmHg 49%
    01:00 +30°C° 0 mm 2 mps 759 mmHg 51%
    02:00 +30°C° 0 mm 2 mps 760 mmHg 52%
    03:00 +29°C° 0 mm 1 mps 760 mmHg 53%
    04:00 +29°C° 0 mm 1 mps 760 mmHg 52%
    05:00 +30°C° 0 mm 1 mps 760 mmHg 50%
    06:00 +30°C° 0 mm 1 mps 760 mmHg 48%
    07:00 +32°C° 0 mm 1 mps 760 mmHg 44%
    08:00 +34°C° 0 mm 2 mps 760 mmHg 40%
    09:00 +36°C° 0 mm 2 mps 760 mmHg 36%
    10:00 +37°C° 0 mm 3 mps 760 mmHg 33%
    11:00 +38°C° 0 mm 3 mps 759 mmHg 29%
    12:00 +41°C° 0 mm 4 mps 759 mmHg 26%
    13:00 +42°C° 0 mm 4 mps 758 mmHg 25%
    14:00 +42°C° 0 mm 4 mps 758 mmHg 23%
    15:00 +43°C° 0 mm 5 mps 758 mmHg 22%
    16:00 +42°C° 0 mm 5 mps 758 mmHg 23%
    17:00 +42°C° 0 mm 5 mps 758 mmHg 24%
    18:00 +41°C° 0 mm 5 mps 758 mmHg 25%
    19:00 +39°C° 0 mm 5 mps 759 mmHg 29%
    20:00 +36°C° 0 mm 5 mps 760 mmHg 33%
    21:00 +34°C° 0 mm 5 mps 760 mmHg 38%
    22:00 +33°C° 0 mm 4 mps 761 mmHg 41%
    23:00 +32°C° 0 mm 4 mps 761 mmHg 45%

    1 August, Tuesday

    Time Temperature Precipitation Wind Pressure Humidity
    00:00 +30°C° 0 mm 3 mps 761 mmHg 49%
    01:00 +30°C° 0 mm 2 mps 761 mmHg 50%
    02:00 +30°C° 0 mm 2 mps 761 mmHg 51%
    03:00 +29°C° 0 mm 2 mps 761 mmHg 52%
    04:00 +30°C° 0 mm 1 mps 761 mmHg 52%
    05:00 +30°C° 0 mm 1 mps 762 mmHg 51%
    06:00 +30°C° 0 mm 1 mps 762 mmHg 50%
    07:00 +31°C° 0 mm 1 mps 762 mmHg 45%
    08:00 +34°C° 0 mm 2 mps 762 mmHg 40%
    09:00 +35°C° 0 mm 2 mps 762 mmHg 35%
    10:00 +37°C° 0 mm 3 mps 761 mmHg 32%
    11:00 +38°C° 0 mm 3 mps 761 mmHg 29%
    12:00 +39°C° 0 mm 3 mps 761 mmHg 26%
    13:00 +40°C° 0 mm 3 mps 760 mmHg 24%
    14:00 +42°C° 0 mm 4 mps 760 mmHg 23%
    15:00 +42°C° 0 mm 4 mps 760 mmHg 22%
    16:00 +42°C° 0 mm 4 mps 760 mmHg 23%
    17:00 +41°C° 0 mm 4 mps 760 mmHg 23%
    18:00 +41°C° 0 mm 5 mps 760 mmHg 24%
    19:00 +39°C° 0 mm 5 mps 761 mmHg 29%
    20:00 +36°C° 0 mm 5 mps 761 mmHg 33%
    21:00 +34°C° 0 mm 6 mps 762 mmHg 38%
    22:00 +33°C° 0 mm 5 mps 762 mmHg 42%
    23:00 +32°C° 0 mm 4 mps 762 mmHg 45%

    2 August, Wednesday

    Time Temperature Precipitation Wind Pressure Humidity
    00:00 +30°C° 0 mm 4 mps 762 mmHg 49%
    01:00 +29°C° 0 mm 3 mps 762 mmHg 51%
    02:00 +29°C° 0 mm 2 mps 762 mmHg 52%
    03:00 +28°C° 0 mm 2 mps 762 mmHg 54%
    04:00 +28°C° 0 mm 2 mps 763 mmHg 54%
    05:00 +29°C° 0 mm 2 mps 763 mmHg 53%
    06:00 +29°C° 0 mm 2 mps 763 mmHg 52%
    07:00 +31°C° 0 mm 2 mps 763 mmHg 47%
    08:00 +33°C° 0 mm 3 mps 763 mmHg 42%
    09:00 +35°C° 0 mm 4 mps 762 mmHg 37%
    10:00 +36°C° 0 mm 4 mps 762 mmHg 35%
    11:00 +38°C° 0 mm 4 mps 762 mmHg 32%
    12:00 +40°C° 0 mm 4 mps 761 mmHg 30%
    13:00 +41°C° 0 mm 4 mps 761 mmHg 29%
    14:00 +41°C° 0 mm 5 mps 760 mmHg 27%
    15:00 +42°C° 0 mm 5 mps 760 mmHg 26%
    16:00 +41°C° 0 mm 5 mps 760 mmHg 27%
    17:00 +41°C° 0 mm 5 mps 760 mmHg 28%
    18:00 +40°C° 0 mm 6 mps 760 mmHg 29%
    19:00 +38°C° 0 mm 6 mps 761 mmHg 33%
    20:00 +35°C° 0 mm 6 mps 761 mmHg 37%
    21:00 +33°C° 0 mm 6 mps 762 mmHg 41%
    22:00 +32°C° 0 mm 5 mps 762 mmHg 44%
    23:00 +30°C° 0 mm 4 mps 762 mmHg 47%
    Show more